Regional Weather Roundup
Issued by NWS Newport/Morehead, NC

Current Version | Previous Version | Text Only | Print | Product List | Glossary Off
Versions: 1 2 3 4 5 6 7 8 9 10 11 12 13 14 15 16 17 18 19 20 21 22 23 24 25 26 27 28 29 30 31 32 33 34 35 36 37 38 39 40 41 42 43 44 45 46 47 48 49 50
000 ASUS42 KMHX 162325 RWRMHX WEATHER ROUNDUP FOR EASTERN NORTH CAROLINA NATIONAL WEATHER SERVICE NEWPORT/MOREHEAD CITY NC 600 PM EST MON JAN 16 2017 NOTE: "FAIR" INDICATES FEW OR NO CLOUDS BELOW 12,000 FEET WITH NO SIGNIFICANT WEATHER AND/OR OBSTRUCTIONS TO VISIBILITY NCZ015>017-031-032-045>047-102-103-170000- NORTH COAST CITY SKY/WX TMP DP RH WIND PRES REMARKS EDENTON CLOUDY 48 42 77 CALM 30.40S ELIZABETH CITY CLOUDY 46 39 76 NE7 30.40R KITTY HAWK NOT AVBL MANTEO CLOUDY 46 41 84 N6 30.39S $$ NCZ045>047-081-094-103-104-170000- CENTRAL COAST CITY SKY/WX TMP DP RH WIND PRES REMARKS FRISCO CLEAR 48 43 82 N7 30.37R $$ NCZ095-097-098-100-101-170000- SOUTHERN COAST CITY SKY/WX TMP DP RH WIND PRES REMARKS BEAUFORT CLOUDY 50 44 80 NE3 30.38R CEDAR ISLAND NOT AVBL JACKSONVILLE CLOUDY 55 46 71 CALM 30.37R PINEY ISLAND MOCLDY N/A N/A N/A N6 30.38R WILMINGTON CLOUDY 55 48 77 NE5 30.36F $$ NCZ011>013-027>030-043-044-078>080-089-090>093-098-170000- COASTAL PLAIN CITY SKY/WX TMP DP RH WIND PRES REMARKS AHOSKIE N/A 44 38 80 CALM 30.39S CLINTON CLOUDY 52 46 80 CALM 30.38F ELIZABETHTOWN MOCLDY 53 46 79 CALM 30.37S GOLDSBORO CLOUDY 51 42 70 CALM 30.36R GREENVILLE CLOUDY 50 43 76 CALM 30.39R HAVELOCK CLOUDY 51 43 74 E3 30.39R KENANSVILLE CLOUDY 52 43 71 CALM 30.38S KINSTON CLOUDY 52 41 66 CALM 30.39R NEW BERN CLOUDY 52 44 74 SE3 30.39R RICHLANDS NOT AVBL ROCKY MOUNT CLOUDY 48 41 76 CALM 30.39R WASHINGTON CLOUDY 48 42 79 E3 30.39S WHITEVILLE CLOUDY 54 48 81 NE5 30.36S $$ AMZ130-135-150-152-154-156-158-170-250-252-270-ANZ085-086-088-633-658-670-170000- MARINE OBSERVATIONS STATION/POSITION TIME TEMP WIND PRES WAVE SWELL AIR SEA DIR/SP/G HT/PER HT/PER (UTC) (F) (DEG/KT/KT) (MB) (FT/S) (FT/S) CHESAPEAKE LIGHT NOT AVBL 64 E VA BEACH 2250 52 58 40/ 8/ 10 1028.3 3/ 8 3/ 8 DUCK 2300 45 44 350/ 8/ 9 1028.3 2 E DUCK 2300 44 N/A 3/11 2/11 OREGON INLET 2300 46 48 340/ 6/ 8 1028.6 13E OREGON INLT NOT AVBL HATTERAS CG 2300 47 54 10/ 11/ 12 1027.7 DIAMOND BUOY 2250 55 73 10/ 14/ 16 1027.7 4/ 7 2/ 7 CAPE LOOKOUT 2300 50 10/ 5/ 7 1028.1 BEAUFORT LAB 2300 50 49 20/ 4/ 6 1027.6 30 SE NEW RVR IN 2308 56 62 50/ 10/ 14 1028.1 30 SE NEW RVR IN 2243 62 N/A 4/11 2/11 27 SE WRIGHTSVLE 2308 60 68 60/ 14/ 17 1027.6 5 SE WRIGHTSVLE NOT AVBL 225 S CAPE HAT 2250 69 71 130/ 8/ 10 1026.7 4/ 8 3/ 8 41 SE CHARLESTON 2250 67 71 20/ 10/ 12 1025.8 4/ 6 3/ 6 $$

USA.gov is the U.S. government's official web portal to all federal, state and local government web resources and services.